Year,Month,Day,Hour,Minute,Value (Times are PST for temperature in C)
2017,06,16,00,00,13.60
2017,06,16,00,01,13.60
2017,06,16,00,02,13.50
2017,06,16,00,03,13.50
2017,06,16,00,04,13.50
2017,06,16,00,05,13.50
2017,06,16,00,06,13.40
2017,06,16,00,07,13.40
2017,06,16,00,08,13.40
2017,06,16,00,09,13.40
2017,06,16,00,10,13.40
2017,06,16,00,11,13.40
2017,06,16,00,12,13.40
2017,06,16,00,13,13.30
2017,06,16,00,14,13.30
2017,06,16,00,15,13.30
2017,06,16,00,16,13.20
2017,06,16,00,17,13.20
2017,06,16,00,18,13.10
2017,06,16,00,19,13.10
2017,06,16,00,20,13.00
2017,06,16,00,21,13.00
2017,06,16,00,22,12.90
2017,06,16,00,23,12.90
2017,06,16,00,24,12.90
2017,06,16,00,25,12.90
2017,06,16,00,26,12.80
2017,06,16,00,27,12.80
2017,06,16,00,28,12.70
2017,06,16,00,29,12.70
2017,06,16,00,30,12.70
2017,06,16,00,31,12.60
2017,06,16,00,32,12.60
2017,06,16,00,33,12.60
2017,06,16,00,34,12.60
2017,06,16,00,35,12.60
2017,06,16,00,36,12.50
2017,06,16,00,37,12.50
2017,06,16,00,38,12.40
2017,06,16,00,39,12.40
2017,06,16,00,40,12.40
2017,06,16,00,41,12.40
2017,06,16,00,42,12.40
2017,06,16,00,43,12.40
2017,06,16,00,44,12.40
2017,06,16,00,45,12.40
2017,06,16,00,46,12.40
2017,06,16,00,47,12.40
2017,06,16,00,48,12.40
2017,06,16,00,49,12.40
2017,06,16,00,50,12.40
2017,06,16,00,51,12.30
2017,06,16,00,52,12.30
2017,06,16,00,53,12.30
2017,06,16,00,54,12.30
2017,06,16,00,55,12.30
2017,06,16,00,56,12.30
2017,06,16,00,57,12.30
2017,06,16,00,58,12.30
2017,06,16,00,59,12.30
2017,06,16,01,00,12.30
2017,06,16,01,01,12.30
2017,06,16,01,02,12.20
2017,06,16,01,03,12.20
2017,06,16,01,04,12.20
2017,06,16,01,05,12.20
2017,06,16,01,06,12.10
2017,06,16,01,07,12.10
2017,06,16,01,08,12.10
2017,06,16,01,09,12.10
2017,06,16,01,10,12.20
2017,06,16,01,11,12.20
2017,06,16,01,12,12.20
2017,06,16,01,13,12.20
2017,06,16,01,14,12.20
2017,06,16,01,15,12.10
2017,06,16,01,16,12.10
2017,06,16,01,17,12.10
2017,06,16,01,18,12.00
2017,06,16,01,19,12.00
2017,06,16,01,20,11.90
2017,06,16,01,21,11.90
2017,06,16,01,22,11.90
2017,06,16,01,23,11.90
2017,06,16,01,24,11.90
2017,06,16,01,25,11.90
2017,06,16,01,26,11.90
2017,06,16,01,27,12.00
2017,06,16,01,28,12.00
2017,06,16,01,29,12.10
2017,06,16,01,30,12.20
2017,06,16,01,31,12.30
2017,06,16,01,32,12.40
2017,06,16,01,33,12.40
2017,06,16,01,34,12.50
2017,06,16,01,35,12.50
2017,06,16,01,36,12.50
2017,06,16,01,37,12.50
2017,06,16,01,38,12.50
2017,06,16,01,39,12.40
2017,06,16,01,40,12.40
2017,06,16,01,41,12.40
2017,06,16,01,42,12.30
2017,06,16,01,43,12.30
2017,06,16,01,44,12.30
2017,06,16,01,45,12.30
2017,06,16,01,46,12.30
2017,06,16,01,47,12.30
2017,06,16,01,48,12.30
2017,06,16,01,49,12.30
2017,06,16,01,50,12.30
2017,06,16,01,51,12.40
2017,06,16,01,52,12.40
2017,06,16,01,53,12.40
2017,06,16,01,54,12.40
2017,06,16,01,55,12.50
2017,06,16,01,56,12.50
2017,06,16,01,57,12.40
2017,06,16,01,58,12.40
2017,06,16,01,59,12.40
2017,06,16,02,00,12.30
2017,06,16,02,01,12.30
2017,06,16,02,02,12.20
2017,06,16,02,03,12.10
2017,06,16,02,04,12.00
2017,06,16,02,05,11.90
2017,06,16,02,06,11.80
2017,06,16,02,07,11.70
2017,06,16,02,08,11.60
2017,06,16,02,09,11.60
2017,06,16,02,10,11.60
2017,06,16,02,11,11.60
2017,06,16,02,12,11.70
2017,06,16,02,13,11.80
2017,06,16,02,14,11.90
2017,06,16,02,15,11.90
2017,06,16,02,16,12.00
2017,06,16,02,17,12.20
2017,06,16,02,18,12.30
2017,06,16,02,19,12.40
2017,06,16,02,20,12.60
2017,06,16,02,21,12.60
2017,06,16,02,22,12.50
2017,06,16,02,23,12.50
2017,06,16,02,24,12.30
2017,06,16,02,25,12.30
2017,06,16,02,26,12.20
2017,06,16,02,27,12.20
2017,06,16,02,28,12.20
2017,06,16,02,29,12.30
2017,06,16,02,30,12.40
2017,06,16,02,31,12.40
2017,06,16,02,32,12.50
2017,06,16,02,33,12.60
2017,06,16,02,34,12.60
2017,06,16,02,35,12.60
2017,06,16,02,36,12.70
2017,06,16,02,37,12.70
2017,06,16,02,38,12.70
2017,06,16,02,39,12.80
2017,06,16,02,40,12.70
2017,06,16,02,41,12.70
2017,06,16,02,42,12.60
2017,06,16,02,43,12.50
2017,06,16,02,44,12.50
2017,06,16,02,45,12.40
2017,06,16,02,46,12.30
2017,06,16,02,47,12.30
2017,06,16,02,48,12.20
2017,06,16,02,49,12.10
2017,06,16,02,50,12.10
2017,06,16,02,51,12.10
2017,06,16,02,52,12.10
2017,06,16,02,53,12.10
2017,06,16,02,54,12.10
2017,06,16,02,55,12.10
2017,06,16,02,56,12.10
2017,06,16,02,57,12.00
2017,06,16,02,58,11.90
2017,06,16,02,59,11.90
2017,06,16,03,00,11.80
2017,06,16,03,01,11.80
2017,06,16,03,02,11.70
2017,06,16,03,03,11.60
2017,06,16,03,04,11.50
2017,06,16,03,05,11.50
2017,06,16,03,06,11.40
2017,06,16,03,07,11.50
2017,06,16,03,08,11.40
2017,06,16,03,09,11.40
2017,06,16,03,10,11.30
2017,06,16,03,11,11.30
2017,06,16,03,12,11.20
2017,06,16,03,13,11.10
2017,06,16,03,14,11.10
2017,06,16,03,15,11.00
2017,06,16,03,16,10.90
2017,06,16,03,17,10.80
2017,06,16,03,18,10.70
2017,06,16,03,19,10.60
2017,06,16,03,20,10.50
2017,06,16,03,21,10.50
2017,06,16,03,22,10.40
2017,06,16,03,23,10.30
2017,06,16,03,24,10.30
2017,06,16,03,25,10.30
2017,06,16,03,26,10.20
2017,06,16,03,27,10.20
2017,06,16,03,28,10.10
2017,06,16,03,29,10.10
2017,06,16,03,30,10.10
2017,06,16,03,31,10.00
2017,06,16,03,32,10.00
2017,06,16,03,33,9.90
2017,06,16,03,34,9.80
2017,06,16,03,35,9.80
2017,06,16,03,36,9.80
2017,06,16,03,37,9.80
2017,06,16,03,38,9.90
2017,06,16,03,39,9.90
2017,06,16,03,40,10.00
2017,06,16,03,41,10.00
2017,06,16,03,42,10.00
2017,06,16,03,43,10.00
2017,06,16,03,44,10.00
2017,06,16,03,45,10.00
2017,06,16,03,46,10.00
2017,06,16,03,47,9.90
2017,06,16,03,48,9.90
2017,06,16,03,49,10.00
2017,06,16,03,50,10.10
2017,06,16,03,51,10.10
2017,06,16,03,52,10.10
2017,06,16,03,53,10.20
2017,06,16,03,54,10.20
2017,06,16,03,55,10.30
2017,06,16,03,56,10.30
2017,06,16,03,57,10.40
2017,06,16,03,58,10.30
2017,06,16,03,59,10.30
2017,06,16,04,00,10.30
2017,06,16,04,01,10.20
2017,06,16,04,02,10.10
2017,06,16,04,03,10.10
2017,06,16,04,04,10.00
2017,06,16,04,05,10.00
2017,06,16,04,06,9.90
2017,06,16,04,07,9.90
2017,06,16,04,08,9.80
2017,06,16,04,09,9.80
2017,06,16,04,10,9.80
2017,06,16,04,11,9.70
2017,06,16,04,12,9.70
2017,06,16,04,13,9.80
2017,06,16,04,14,9.80
2017,06,16,04,15,9.80
2017,06,16,04,16,9.80
2017,06,16,04,17,9.70
2017,06,16,04,18,9.70
2017,06,16,04,19,9.60
2017,06,16,04,20,9.60
2017,06,16,04,21,9.60
2017,06,16,04,22,9.60
2017,06,16,04,23,9.60
2017,06,16,04,24,9.50
2017,06,16,04,25,9.50
2017,06,16,04,26,9.40
2017,06,16,04,27,9.40
2017,06,16,04,28,9.40
2017,06,16,04,29,9.30
2017,06,16,04,30,9.30
2017,06,16,04,31,9.30
2017,06,16,04,32,9.30
2017,06,16,04,33,9.30
2017,06,16,04,34,9.30
2017,06,16,04,35,9.30
2017,06,16,04,36,9.30
2017,06,16,04,37,9.30
2017,06,16,04,38,9.30
2017,06,16,04,39,9.30
2017,06,16,04,40,9.20
2017,06,16,04,41,9.20
2017,06,16,04,42,9.20
2017,06,16,04,43,9.20
2017,06,16,04,44,9.20
2017,06,16,04,45,9.20
2017,06,16,04,46,9.10
2017,06,16,04,47,9.10
2017,06,16,04,48,9.10
2017,06,16,04,49,9.10
2017,06,16,04,50,9.10
2017,06,16,04,51,9.00
2017,06,16,04,52,9.00
2017,06,16,04,53,8.90
2017,06,16,04,54,8.90
2017,06,16,04,55,8.90
2017,06,16,04,56,8.90
2017,06,16,04,57,8.90
2017,06,16,04,58,8.90
2017,06,16,04,59,8.90
2017,06,16,05,00,9.00
2017,06,16,05,01,9.00
2017,06,16,05,02,9.00
2017,06,16,05,03,9.00
2017,06,16,05,04,8.90
2017,06,16,05,05,8.90
2017,06,16,05,06,8.90
2017,06,16,05,07,8.90
2017,06,16,05,08,8.80
2017,06,16,05,09,8.80
2017,06,16,05,10,8.80
2017,06,16,05,11,8.80
2017,06,16,05,12,8.80
2017,06,16,05,13,8.80
2017,06,16,05,14,8.70
2017,06,16,05,15,8.70
2017,06,16,05,16,8.70
2017,06,16,05,17,8.70
2017,06,16,05,18,8.70
2017,06,16,05,19,8.80
2017,06,16,05,20,8.80
2017,06,16,05,21,8.80
2017,06,16,05,22,8.80
2017,06,16,05,23,8.80
2017,06,16,05,24,8.80
2017,06,16,05,25,8.80
2017,06,16,05,26,8.80
2017,06,16,05,27,8.80
2017,06,16,05,28,8.80
2017,06,16,05,29,8.80
2017,06,16,05,30,8.80
2017,06,16,05,31,8.80
2017,06,16,05,32,8.70
2017,06,16,05,33,8.70
2017,06,16,05,34,8.70
2017,06,16,05,35,8.70
2017,06,16,05,36,8.70
2017,06,16,05,37,8.70
2017,06,16,05,38,8.70
2017,06,16,05,39,8.70
2017,06,16,05,40,8.80
2017,06,16,05,41,8.80
2017,06,16,05,42,8.90
2017,06,16,05,43,8.90
2017,06,16,05,44,8.90
2017,06,16,05,45,8.90
2017,06,16,05,46,8.90
2017,06,16,05,47,8.90
2017,06,16,05,48,8.90
2017,06,16,05,49,9.00
2017,06,16,05,50,9.00
2017,06,16,05,51,9.00
2017,06,16,05,52,9.10
2017,06,16,05,53,9.10
2017,06,16,05,54,9.10
2017,06,16,05,55,9.10
2017,06,16,05,56,9.10
2017,06,16,05,57,9.10
2017,06,16,05,58,9.10
2017,06,16,05,59,9.10
2017,06,16,06,00,9.00
2017,06,16,06,01,9.00
2017,06,16,06,02,9.10
2017,06,16,06,03,9.10
2017,06,16,06,04,9.10
2017,06,16,06,05,9.20
2017,06,16,06,06,9.20
2017,06,16,06,07,9.20
2017,06,16,06,08,9.20
2017,06,16,06,09,9.20
2017,06,16,06,10,9.20
2017,06,16,06,11,9.30
2017,06,16,06,12,9.30
2017,06,16,06,13,9.40
2017,06,16,06,14,9.50
2017,06,16,06,15,9.60
2017,06,16,06,16,9.60
2017,06,16,06,17,9.70
2017,06,16,06,18,9.70
2017,06,16,06,19,9.80
2017,06,16,06,20,9.90
2017,06,16,06,21,10.00
2017,06,16,06,22,10.10
2017,06,16,06,23,10.20
2017,06,16,06,24,10.20
2017,06,16,06,25,10.20
2017,06,16,06,26,10.20
2017,06,16,06,27,10.20
2017,06,16,06,28,10.20
2017,06,16,06,29,10.20
2017,06,16,06,30,10.20
2017,06,16,06,31,10.20
2017,06,16,06,32,10.30
2017,06,16,06,33,10.30
2017,06,16,06,34,10.30
2017,06,16,06,35,10.40
2017,06,16,06,36,10.40
2017,06,16,06,37,10.40
2017,06,16,06,38,10.50
2017,06,16,06,39,10.50
2017,06,16,06,40,10.60
2017,06,16,06,41,10.60
2017,06,16,06,42,10.70
2017,06,16,06,43,10.80
2017,06,16,06,44,10.90
2017,06,16,06,45,11.00
2017,06,16,06,46,11.00
2017,06,16,06,47,11.00
2017,06,16,06,48,11.00
2017,06,16,06,49,11.00
2017,06,16,06,50,10.90
2017,06,16,06,51,10.90
2017,06,16,06,52,10.90
2017,06,16,06,53,10.90
2017,06,16,06,54,10.90
2017,06,16,06,55,10.90
2017,06,16,06,56,10.90
2017,06,16,06,57,10.90
2017,06,16,06,58,10.90
2017,06,16,06,59,11.00
2017,06,16,07,00,11.00
2017,06,16,07,01,11.10
2017,06,16,07,02,11.10
2017,06,16,07,03,11.20
2017,06,16,07,04,11.20
2017,06,16,07,05,11.30
2017,06,16,07,06,11.30
2017,06,16,07,07,11.40
2017,06,16,07,08,11.40
2017,06,16,07,09,11.50
2017,06,16,07,10,11.50
2017,06,16,07,11,11.60
2017,06,16,07,12,11.70
2017,06,16,07,13,11.80
2017,06,16,07,14,11.80
2017,06,16,07,15,11.90
2017,06,16,07,16,12.00
2017,06,16,07,17,12.10
2017,06,16,07,18,12.10
2017,06,16,07,19,12.20
2017,06,16,07,20,12.30
2017,06,16,07,21,12.30
2017,06,16,07,22,12.40
2017,06,16,07,23,12.50
2017,06,16,07,24,12.60
2017,06,16,07,25,12.60
2017,06,16,07,26,12.70
2017,06,16,07,27,12.80
2017,06,16,07,28,12.90
2017,06,16,07,29,13.00
2017,06,16,07,30,13.10
2017,06,16,07,31,13.10
2017,06,16,07,32,13.20
2017,06,16,07,33,13.30
2017,06,16,07,34,13.40
2017,06,16,07,35,13.50
2017,06,16,07,36,13.60
2017,06,16,07,37,13.70
2017,06,16,07,38,13.80
2017,06,16,07,39,13.90
2017,06,16,07,40,14.00
2017,06,16,07,41,14.10
2017,06,16,07,42,14.20
2017,06,16,07,43,14.30
2017,06,16,07,44,14.40
2017,06,16,07,45,14.50
2017,06,16,07,46,14.50
2017,06,16,07,47,14.60
2017,06,16,07,48,14.50
2017,06,16,07,49,14.50
2017,06,16,07,50,14.50
2017,06,16,07,51,14.50
2017,06,16,07,52,14.60
2017,06,16,07,53,14.60
2017,06,16,07,54,14.60
2017,06,16,07,55,14.60
2017,06,16,07,56,14.70
2017,06,16,07,57,14.70
2017,06,16,07,58,14.70
2017,06,16,07,59,14.80
2017,06,16,08,00,14.90
2017,06,16,08,01,15.00
2017,06,16,08,02,15.00
2017,06,16,08,03,15.00
2017,06,16,08,04,15.00
2017,06,16,08,05,15.00
2017,06,16,08,06,15.00
2017,06,16,08,07,15.00
2017,06,16,08,08,15.00
2017,06,16,08,09,15.10
2017,06,16,08,10,15.00
2017,06,16,08,11,15.00
2017,06,16,08,12,15.00
2017,06,16,08,13,15.00
2017,06,16,08,14,15.00
2017,06,16,08,15,15.00
2017,06,16,08,16,15.10
2017,06,16,08,17,15.10
2017,06,16,08,18,15.20
2017,06,16,08,19,15.20
2017,06,16,08,20,15.20
2017,06,16,08,21,15.20
2017,06,16,08,22,15.10
2017,06,16,08,23,15.00
2017,06,16,08,24,15.00
2017,06,16,08,25,15.00
2017,06,16,08,26,15.00
2017,06,16,08,27,15.00
2017,06,16,08,28,15.00
2017,06,16,08,29,15.00
2017,06,16,08,30,15.00
2017,06,16,08,31,15.00
2017,06,16,08,32,15.00
2017,06,16,08,33,15.00
2017,06,16,08,34,15.00
2017,06,16,08,35,15.00
2017,06,16,08,36,15.00
2017,06,16,08,37,14.90
2017,06,16,08,38,14.90
2017,06,16,08,39,14.80
2017,06,16,08,40,14.80
2017,06,16,08,41,14.90
2017,06,16,08,42,15.00
2017,06,16,08,43,15.00
2017,06,16,08,44,15.00
2017,06,16,08,45,15.00
2017,06,16,08,46,15.00
2017,06,16,08,47,15.00
2017,06,16,08,48,15.00
2017,06,16,08,49,15.00
2017,06,16,08,50,15.00
2017,06,16,08,51,15.00
2017,06,16,08,52,15.00
2017,06,16,08,53,15.00
2017,06,16,08,54,15.00
2017,06,16,08,55,15.00
2017,06,16,08,56,15.00
2017,06,16,08,57,15.00
2017,06,16,08,58,15.00
2017,06,16,08,59,15.00
2017,06,16,09,00,15.00
2017,06,16,09,01,15.00
2017,06,16,09,02,15.00
2017,06,16,09,03,15.00
2017,06,16,09,04,15.00
2017,06,16,09,05,15.00
2017,06,16,09,06,15.00
2017,06,16,09,07,15.00
2017,06,16,09,08,15.00
2017,06,16,09,09,15.00
2017,06,16,09,10,15.10
2017,06,16,09,11,15.20
2017,06,16,09,12,15.30
2017,06,16,09,13,15.40
2017,06,16,09,14,15.40
2017,06,16,09,15,15.50
2017,06,16,09,16,15.60
2017,06,16,09,17,15.80
2017,06,16,09,18,15.80
2017,06,16,09,19,16.00
2017,06,16,09,20,16.10
2017,06,16,09,21,16.20
2017,06,16,09,22,16.10
2017,06,16,09,23,16.00
2017,06,16,09,24,15.80
2017,06,16,09,25,15.70
2017,06,16,09,26,15.60
2017,06,16,09,27,15.60
2017,06,16,09,28,15.60
2017,06,16,09,29,15.70
2017,06,16,09,30,15.70
2017,06,16,09,31,15.70
2017,06,16,09,32,15.80
2017,06,16,09,33,15.80
2017,06,16,09,34,15.80
2017,06,16,09,35,15.80
2017,06,16,09,36,15.80
2017,06,16,09,37,15.80
2017,06,16,09,38,15.80
2017,06,16,09,39,15.90
2017,06,16,09,40,15.90
2017,06,16,09,41,15.90
2017,06,16,09,42,15.90
2017,06,16,09,43,15.90
2017,06,16,09,44,15.90
2017,06,16,09,45,15.90
2017,06,16,09,46,15.90
2017,06,16,09,47,15.90
2017,06,16,09,48,16.00
2017,06,16,09,49,16.10
2017,06,16,09,50,16.10
2017,06,16,09,51,16.20
2017,06,16,09,52,16.20
2017,06,16,09,53,16.20
2017,06,16,09,54,16.20
2017,06,16,09,55,16.20
2017,06,16,09,56,16.20
2017,06,16,09,57,16.20
2017,06,16,09,58,16.30
2017,06,16,09,59,16.40
2017,06,16,10,00,16.40
2017,06,16,10,01,16.50
2017,06,16,10,02,16.60
2017,06,16,10,03,16.60
2017,06,16,10,04,16.60
2017,06,16,10,05,16.50
2017,06,16,10,06,16.50
2017,06,16,10,07,16.50
2017,06,16,10,08,16.50
2017,06,16,10,09,16.50
2017,06,16,10,10,16.50
2017,06,16,10,11,16.40
2017,06,16,10,12,16.30
2017,06,16,10,13,16.40
2017,06,16,10,14,16.60
2017,06,16,10,15,16.60
2017,06,16,10,16,16.60
2017,06,16,10,17,16.60
2017,06,16,10,18,16.60
2017,06,16,10,19,16.70
2017,06,16,10,20,16.70
2017,06,16,10,21,16.60
2017,06,16,10,22,16.50
2017,06,16,10,23,16.50
2017,06,16,10,24,16.50
2017,06,16,10,25,16.60
2017,06,16,10,26,16.60
2017,06,16,10,27,16.60
2017,06,16,10,28,16.70
2017,06,16,10,29,16.70
2017,06,16,10,30,16.60
2017,06,16,10,31,16.60
2017,06,16,10,32,16.60
2017,06,16,10,33,16.60
2017,06,16,10,34,16.60
2017,06,16,10,35,16.60
2017,06,16,10,36,16.70
2017,06,16,10,37,16.70
2017,06,16,10,38,16.80
2017,06,16,10,39,16.80
2017,06,16,10,40,16.80
2017,06,16,10,41,16.80
2017,06,16,10,42,16.90
2017,06,16,10,43,16.90
2017,06,16,10,44,16.90
2017,06,16,10,45,16.90
2017,06,16,10,46,16.80
2017,06,16,10,47,16.80
2017,06,16,10,48,16.70
2017,06,16,10,49,16.80
2017,06,16,10,50,16.80
2017,06,16,10,51,16.80
2017,06,16,10,52,16.80
2017,06,16,10,53,16.80
2017,06,16,10,54,16.80
2017,06,16,10,55,16.70
2017,06,16,10,56,16.60
2017,06,16,10,57,16.50
2017,06,16,10,58,16.50
2017,06,16,10,59,16.40
2017,06,16,11,00,16.40
2017,06,16,11,01,16.50
2017,06,16,11,02,16.60
2017,06,16,11,03,16.70
2017,06,16,11,04,16.70
2017,06,16,11,05,16.60
2017,06,16,11,06,16.50
2017,06,16,11,07,16.50
2017,06,16,11,08,16.50
2017,06,16,11,09,16.60
2017,06,16,11,10,16.60
2017,06,16,11,11,16.50
2017,06,16,11,12,16.50
2017,06,16,11,13,16.50
2017,06,16,11,14,16.50
2017,06,16,11,15,16.40
2017,06,16,11,16,16.50
2017,06,16,11,17,16.50
2017,06,16,11,18,16.50
2017,06,16,11,19,16.60
2017,06,16,11,20,16.50
2017,06,16,11,21,16.40
2017,06,16,11,22,16.40
2017,06,16,11,23,16.40
2017,06,16,11,24,16.40
2017,06,16,11,25,16.50
2017,06,16,11,26,16.50
2017,06,16,11,27,16.40
2017,06,16,11,28,16.40
2017,06,16,11,29,16.30
2017,06,16,11,30,16.30
2017,06,16,11,31,16.40
2017,06,16,11,32,16.40
2017,06,16,11,33,16.40
2017,06,16,11,34,16.40
2017,06,16,11,35,16.40
2017,06,16,11,36,16.30
2017,06,16,11,37,16.30
2017,06,16,11,38,16.30
2017,06,16,11,39,16.30
2017,06,16,11,40,16.30
2017,06,16,11,41,16.30
2017,06,16,11,42,16.20
2017,06,16,11,43,16.20
2017,06,16,11,44,16.20
2017,06,16,11,45,16.20
2017,06,16,11,46,16.30
2017,06,16,11,47,16.30
2017,06,16,11,48,16.40
2017,06,16,11,49,16.50
2017,06,16,11,50,16.50
2017,06,16,11,51,16.60
2017,06,16,11,52,16.60
2017,06,16,11,53,16.60
2017,06,16,11,54,16.70
2017,06,16,11,55,16.70
2017,06,16,11,56,16.70
2017,06,16,11,57,16.80
2017,06,16,11,58,16.80
2017,06,16,11,59,16.80
2017,06,16,12,00,16.90
2017,06,16,12,01,16.90
2017,06,16,12,02,16.90
2017,06,16,12,03,16.90
2017,06,16,12,04,16.90
2017,06,16,12,05,17.00
2017,06,16,12,06,16.90
2017,06,16,12,07,16.90
2017,06,16,12,08,17.00
2017,06,16,12,09,17.00
2017,06,16,12,10,17.10
2017,06,16,12,11,17.10
2017,06,16,12,12,17.10
2017,06,16,12,13,17.10
2017,06,16,12,14,17.10
2017,06,16,12,15,17.00
2017,06,16,12,16,17.00
2017,06,16,12,17,16.90
2017,06,16,12,18,16.90
2017,06,16,12,19,16.90
2017,06,16,12,20,16.90
2017,06,16,12,21,16.90
2017,06,16,12,22,16.90
2017,06,16,12,23,16.90
2017,06,16,12,24,16.80
2017,06,16,12,25,16.70
2017,06,16,12,26,16.60
2017,06,16,12,27,16.50
2017,06,16,12,28,16.40
2017,06,16,12,29,16.40
2017,06,16,12,30,16.30
2017,06,16,12,31,16.30
2017,06,16,12,32,16.30
2017,06,16,12,33,16.30
2017,06,16,12,34,16.30
2017,06,16,12,35,16.30
2017,06,16,12,36,16.30
2017,06,16,12,37,16.40
2017,06,16,12,38,16.40
2017,06,16,12,39,16.40
2017,06,16,12,40,16.50
2017,06,16,12,41,16.50
2017,06,16,12,42,16.50
2017,06,16,12,43,16.50
2017,06,16,12,44,16.50
2017,06,16,12,45,16.50
2017,06,16,12,46,16.50
2017,06,16,12,47,16.50
2017,06,16,12,48,16.50
2017,06,16,12,49,16.50
2017,06,16,12,50,16.60
2017,06,16,12,51,16.50
2017,06,16,12,52,16.50
2017,06,16,12,53,16.50
2017,06,16,12,54,16.60
2017,06,16,12,55,16.60
2017,06,16,12,56,16.50
2017,06,16,12,57,16.40
2017,06,16,12,58,16.40
2017,06,16,12,59,16.40
2017,06,16,13,00,16.40
2017,06,16,13,01,16.40
2017,06,16,13,02,16.40
2017,06,16,13,03,16.40
2017,06,16,13,04,16.50
2017,06,16,13,05,16.50
2017,06,16,13,06,16.60
2017,06,16,13,07,16.80
2017,06,16,13,08,17.00
2017,06,16,13,09,17.10
2017,06,16,13,10,17.10
2017,06,16,13,11,17.00
2017,06,16,13,12,17.00
2017,06,16,13,13,17.00
2017,06,16,13,14,17.10
2017,06,16,13,15,17.10
2017,06,16,13,16,17.10
2017,06,16,13,17,17.20
2017,06,16,13,18,17.20
2017,06,16,13,19,17.30
2017,06,16,13,20,17.20
2017,06,16,13,21,17.20
2017,06,16,13,22,17.10
2017,06,16,13,23,17.10
2017,06,16,13,24,17.10
2017,06,16,13,25,17.10
2017,06,16,13,26,17.10
2017,06,16,13,27,17.00
2017,06,16,13,28,17.00
2017,06,16,13,29,16.90
2017,06,16,13,30,16.80
2017,06,16,13,31,16.90
2017,06,16,13,32,16.80
2017,06,16,13,33,16.80
2017,06,16,13,34,16.80
2017,06,16,13,35,16.80
2017,06,16,13,36,16.80
2017,06,16,13,37,16.90
2017,06,16,13,38,16.90
2017,06,16,13,39,17.00
2017,06,16,13,40,17.10
2017,06,16,13,41,17.20
2017,06,16,13,42,17.30
2017,06,16,13,43,17.40
2017,06,16,13,44,17.50
2017,06,16,13,45,17.60
2017,06,16,13,46,17.70
2017,06,16,13,47,17.90
2017,06,16,13,48,18.00
2017,06,16,13,49,18.00
2017,06,16,13,50,18.00
2017,06,16,13,51,18.10
2017,06,16,13,52,18.10
2017,06,16,13,53,18.10
2017,06,16,13,54,18.20
2017,06,16,13,55,18.20
2017,06,16,13,56,18.10
2017,06,16,13,57,17.90
2017,06,16,13,58,17.80
2017,06,16,13,59,17.60
2017,06,16,14,00,17.60
2017,06,16,14,01,17.70
2017,06,16,14,02,17.70
2017,06,16,14,03,17.70
2017,06,16,14,04,17.70
2017,06,16,14,05,17.70
2017,06,16,14,06,17.70
2017,06,16,14,07,17.80
2017,06,16,14,08,17.80
2017,06,16,14,09,17.80
2017,06,16,14,10,17.70
2017,06,16,14,11,17.70
2017,06,16,14,12,17.80
2017,06,16,14,13,17.90
2017,06,16,14,14,17.90
2017,06,16,14,15,17.90
2017,06,16,14,16,17.90
2017,06,16,14,17,18.00
2017,06,16,14,18,18.10
2017,06,16,14,19,18.10
2017,06,16,14,20,18.20
2017,06,16,14,21,18.30
2017,06,16,14,22,18.30
2017,06,16,14,23,18.30
2017,06,16,14,24,18.30
2017,06,16,14,25,18.30
2017,06,16,14,26,18.30
2017,06,16,14,27,18.30
2017,06,16,14,28,18.30
2017,06,16,14,29,18.20
2017,06,16,14,30,18.10
2017,06,16,14,31,18.00
2017,06,16,14,32,17.90
2017,06,16,14,33,17.80
2017,06,16,14,34,17.70
2017,06,16,14,35,17.70
2017,06,16,14,36,17.70
2017,06,16,14,37,17.60
2017,06,16,14,38,17.60
2017,06,16,14,39,17.60
2017,06,16,14,40,17.60
2017,06,16,14,41,17.60
2017,06,16,14,42,17.70
2017,06,16,14,43,17.70
2017,06,16,14,44,17.80
2017,06,16,14,45,17.90
2017,06,16,14,46,17.90
2017,06,16,14,47,17.80
2017,06,16,14,48,17.80
2017,06,16,14,49,17.80
2017,06,16,14,50,17.80
2017,06,16,14,51,17.70
2017,06,16,14,52,17.70
2017,06,16,14,53,17.70
2017,06,16,14,54,17.70
2017,06,16,14,55,17.80
2017,06,16,14,56,17.80
2017,06,16,14,57,17.80
2017,06,16,14,58,17.80
2017,06,16,14,59,17.80
2017,06,16,15,00,17.70
2017,06,16,15,01,17.60
2017,06,16,15,02,17.60
2017,06,16,15,03,17.60
2017,06,16,15,04,17.50
2017,06,16,15,05,17.40
2017,06,16,15,06,17.40
2017,06,16,15,07,17.30
2017,06,16,15,08,17.30
2017,06,16,15,09,17.30
2017,06,16,15,10,17.30
2017,06,16,15,11,17.30
2017,06,16,15,12,17.40
2017,06,16,15,13,17.40
2017,06,16,15,14,17.40
2017,06,16,15,15,17.40
2017,06,16,15,16,17.30
2017,06,16,15,17,17.30
2017,06,16,15,18,17.30
2017,06,16,15,19,17.30
2017,06,16,15,20,17.30
2017,06,16,15,21,17.30
2017,06,16,15,22,17.40
2017,06,16,15,23,17.40
2017,06,16,15,24,17.50
2017,06,16,15,25,17.50
2017,06,16,15,26,17.50
2017,06,16,15,27,17.60
2017,06,16,15,28,17.60
2017,06,16,15,29,17.60
2017,06,16,15,30,17.60
2017,06,16,15,31,17.60
2017,06,16,15,32,17.60
2017,06,16,15,33,17.70
2017,06,16,15,34,17.70
2017,06,16,15,35,17.70
2017,06,16,15,36,17.60
2017,06,16,15,37,17.50
2017,06,16,15,38,17.50
2017,06,16,15,39,17.60
2017,06,16,15,40,17.50
2017,06,16,15,41,17.40
2017,06,16,15,42,17.40
2017,06,16,15,43,17.40
2017,06,16,15,44,17.50
2017,06,16,15,45,17.60
2017,06,16,15,46,17.70
2017,06,16,15,47,17.70
2017,06,16,15,48,17.70
2017,06,16,15,49,17.70
2017,06,16,15,50,17.70
2017,06,16,15,51,17.70
2017,06,16,15,52,17.60
2017,06,16,15,53,17.60
2017,06,16,15,54,17.70
2017,06,16,15,55,17.70
2017,06,16,15,56,17.60
2017,06,16,15,57,17.60
2017,06,16,15,58,17.60
2017,06,16,15,59,17.80
2017,06,16,16,00,17.80
2017,06,16,16,01,17.80
2017,06,16,16,02,17.90
2017,06,16,16,03,17.90
2017,06,16,16,04,17.80
2017,06,16,16,05,17.80
2017,06,16,16,06,17.70
2017,06,16,16,07,17.70
2017,06,16,16,08,17.60
2017,06,16,16,09,17.60
2017,06,16,16,10,17.60
2017,06,16,16,11,17.70
2017,06,16,16,12,17.80
2017,06,16,16,13,17.90
2017,06,16,16,14,18.00
2017,06,16,16,15,18.10
2017,06,16,16,16,18.00
2017,06,16,16,17,17.90
2017,06,16,16,18,17.90
2017,06,16,16,19,17.90
2017,06,16,16,20,17.90
2017,06,16,16,21,17.80
2017,06,16,16,22,17.60
2017,06,16,16,23,17.50
2017,06,16,16,24,17.50
2017,06,16,16,25,17.40
2017,06,16,16,26,17.40
2017,06,16,16,27,17.40
2017,06,16,16,28,17.30
2017,06,16,16,29,17.30
2017,06,16,16,30,17.20
2017,06,16,16,31,17.20
2017,06,16,16,32,17.20
2017,06,16,16,33,17.20
2017,06,16,16,34,17.20
2017,06,16,16,35,17.30
2017,06,16,16,36,17.40
2017,06,16,16,37,17.40
2017,06,16,16,38,17.50
2017,06,16,16,39,17.50
2017,06,16,16,40,17.60
2017,06,16,16,41,17.50
2017,06,16,16,42,17.50
2017,06,16,16,43,17.60
2017,06,16,16,44,17.60
2017,06,16,16,45,17.70
2017,06,16,16,46,17.70
2017,06,16,16,47,17.80
2017,06,16,16,48,17.90
2017,06,16,16,49,17.90
2017,06,16,16,50,18.00
2017,06,16,16,51,18.00
2017,06,16,16,52,18.00
2017,06,16,16,53,18.10
2017,06,16,16,54,18.20
2017,06,16,16,55,18.20
2017,06,16,16,56,18.10
2017,06,16,16,57,18.00
2017,06,16,16,58,17.90
2017,06,16,16,59,17.90
2017,06,16,17,00,17.90
2017,06,16,17,01,17.90
2017,06,16,17,02,18.00
2017,06,16,17,03,18.00
2017,06,16,17,04,18.10
2017,06,16,17,05,18.10
2017,06,16,17,06,18.10
2017,06,16,17,07,18.10
2017,06,16,17,08,18.10
2017,06,16,17,09,18.10
2017,06,16,17,10,18.10
2017,06,16,17,11,18.10
2017,06,16,17,12,18.20
2017,06,16,17,13,18.30
2017,06,16,17,14,18.30
2017,06,16,17,15,18.20
2017,06,16,17,16,18.20
2017,06,16,17,17,18.20
2017,06,16,17,18,18.20
2017,06,16,17,19,18.20
2017,06,16,17,20,18.10
2017,06,16,17,21,18.10
2017,06,16,17,22,18.00
2017,06,16,17,23,18.00
2017,06,16,17,24,18.00
2017,06,16,17,25,18.00